Location: Olsztyn
(53.7767°N, 20.4765°E)
Time: 08:23:48
(UTC+01:00)

Transit 4A - Pass Details

Date: 05 October 2022
Orbit: 871 x 972 km, 66.8° (Epoch: 06 December)

Event Time Altitude Azimuth Distance (km) Brightness Sun altitude
Exits shadow 00:50:21 26° 15° (NNE) 1,708 9.7 -40.6°
Drops below altitude 10° 00:53:20 10° 37° (NE) 2,566 10.7 -40.6°
Sets 00:56:02 0° 47° (NE) 3,496 11.5 -40.5°
